UAE98V EDDH-OMDB

Flight info

Callsign UAE98V
Flight time N/A
Altitude 23000
Route RAMAR6G/33 RAMAR Z998 NUSGU/N0474F330 Z998 RATMO DCT HDO DCT KATQA DCT MAVOR DCT DEGET/N0474F350 DCT LAMIT DCT RASUB DCT ARTAT UP975 ERGUN UL124 EVSAS UM688 RATVO M688 SIDAD P975 SESRU M677 VUTEB
Aircraft B77W/H-SDE1E2E3FGHIJ2J3J4J5M1RWXY/LB1D1

Departure

Time 2026-05-05 22:52
Airport Hamburg Helmut Schmidt Airport (EDDH)

Arrival

Time N/A
Airport Dubai International Airport (OMDB)
Time Latitude Longitude Altitude Speed Heading
2026-05-05 22:30 53.63016 10.00337 48 ft 0 kts 122°
2026-05-05 22:46 53.63028 10.00304 47 ft 4 kts 122°
2026-05-05 22:46 53.63042 10.00267 47 ft 3 kts 122°
2026-05-05 22:46 53.63054 10.00237 47 ft 4 kts 136°
2026-05-05 22:46 53.63070 10.00224 47 ft 3 kts 212°
2026-05-05 22:47 53.63067 10.00220 47 ft 1 kts 212°
2026-05-05 22:47 53.63066 10.00220 47 ft 0 kts 212°
2026-05-05 22:49 53.63027 10.00177 47 ft 13 kts 212°
2026-05-05 22:49 53.62951 10.00095 49 ft 6 kts 213°
2026-05-05 22:49 53.62937 10.00079 51 ft 0 kts 211°
2026-05-05 22:50 53.62914 10.00065 50 ft 11 kts 197°
2026-05-05 22:50 53.62867 10.00031 51 ft 3 kts 216°
2026-05-05 22:50 53.62853 10.00006 47 ft 3 kts 235°
2026-05-05 22:50 53.62844 9.99972 53 ft 4 kts 248°
2026-05-05 22:51 53.62821 9.99888 48 ft 15 kts 245°
2026-05-05 22:51 53.62856 9.99752 47 ft 14 kts 333°
2026-05-05 22:51 53.63025 9.99607 47 ft 52 kts 333°
2026-05-05 22:51 53.63561 9.99148 49 ft 119 kts 333°
2026-05-05 22:52 53.64471 9.98362 53 ft 172 kts 333°
2026-05-05 22:52 53.65585 9.97390 391 ft 183 kts 335°
2026-05-05 22:52 53.66747 9.96357 793 ft 194 kts 334°
2026-05-05 22:52 53.67951 9.95317 1364 ft 196 kts 339°
2026-05-05 22:53 53.69237 9.94395 1691 ft 204 kts 353°
2026-05-05 22:53 53.70671 9.94331 1942 ft 211 kts 13°
2026-05-05 22:53 53.72144 9.94744 2322 ft 219 kts 17°
2026-05-05 22:53 53.73585 9.95767 2492 ft 234 kts 41°
2026-05-05 22:54 53.74607 9.97922 3000 ft 237 kts 68°
2026-05-05 22:54 53.75127 10.00576 3676 ft 240 kts 77°
2026-05-05 22:54 53.75559 10.03333 4151 ft 248 kts 68°
2026-05-05 22:54 53.76430 10.05907 4624 ft 256 kts 57°
2026-05-05 22:55 53.77368 10.08519 5162 ft 262 kts 63°
2026-05-05 22:55 53.77925 10.11411 5679 ft 263 kts 90°
2026-05-05 22:55 53.77435 10.14360 6249 ft 268 kts 125°
2026-05-05 22:55 53.76084 10.16521 6781 ft 268 kts 143°
2026-05-05 22:56 53.74643 10.18522 7217 ft 276 kts 137°
2026-05-05 22:56 53.73248 10.20788 7848 ft 279 kts 136°
2026-05-05 22:56 53.71864 10.23100 8538 ft 281 kts 136°
2026-05-05 22:56 53.70460 10.25432 9179 ft 285 kts 137°
2026-05-05 22:57 53.69027 10.27791 9766 ft 290 kts 137°
2026-05-05 22:57 53.67566 10.30185 10272 ft 298 kts 137°
2026-05-05 22:57 53.66022 10.32698 10434 ft 319 kts 137°
2026-05-05 22:57 53.64368 10.35380 10611 ft 341 kts 137°
2026-05-05 22:58 53.62613 10.38218 10776 ft 362 kts 137°
2026-05-05 22:58 53.60759 10.41213 11250 ft 374 kts 137°
2026-05-05 22:58 53.58868 10.44262 11973 ft 380 kts 137°
2026-05-05 22:58 53.56946 10.47354 12800 ft 384 kts 137°
2026-05-05 22:59 53.55001 10.50477 13648 ft 389 kts 137°
2026-05-05 22:59 53.53032 10.53635 14400 ft 393 kts 137°
2026-05-05 22:59 53.51044 10.56818 15171 ft 396 kts 138°
2026-05-05 22:59 53.49041 10.60020 15941 ft 400 kts 138°
2026-05-05 23:00 53.44968 10.66514 17447 ft 408 kts 138°
2026-05-05 23:00 53.42898 10.69806 18174 ft 412 kts 137°
2026-05-05 23:00 53.40805 10.73130 18802 ft 416 kts 138°
2026-05-05 23:01 53.38692 10.76483 19423 ft 421 kts 138°
2026-05-05 23:01 53.36556 10.79866 20038 ft 425 kts 138°
2026-05-05 23:01 53.34399 10.83278 20658 ft 429 kts 139°
2026-05-05 23:01 53.32219 10.86722 21218 ft 434 kts 139°
2026-05-05 23:02 53.30012 10.90202 21781 ft 439 kts 139°
2026-05-05 23:02 53.27780 10.93716 22388 ft 442 kts 139°
2026-05-05 23:02 53.25536 10.97245 23016 ft 445 kts 140°
2026-05-05 23:02 53.23265 11.00811 23560 ft 449 kts 140°
2026-05-05 23:03 53.20994 11.04372 24200 ft 447 kts 140°
2026-05-05 23:03 53.18725 11.07926 24795 ft 448 kts 140°
2026-05-05 23:03 53.16442 11.11494 25235 ft 452 kts 140°
2026-05-05 23:03 53.14139 11.15087 25681 ft 455 kts 140°
2026-05-05 23:04 53.11823 11.18695 26136 ft 458 kts 140°
2026-05-05 23:04 53.09487 11.22329 26622 ft 460 kts 140°
2026-05-05 23:04 53.07146 11.25966 27084 ft 462 kts 140°
2026-05-05 23:04 53.04787 11.29624 27471 ft 466 kts 140°
2026-05-05 23:05 53.02408 11.33307 27885 ft 468 kts 140°
2026-05-05 23:05 53.00021 11.36997 28298 ft 470 kts 140°
2026-05-05 23:05 52.97622 11.40701 28708 ft 472 kts 140°
2026-05-05 23:05 52.95216 11.44408 29122 ft 473 kts 141°
2026-05-05 23:06 52.92808 11.48116 29636 ft 471 kts 141°
2026-05-05 23:06 52.90413 11.51799 30207 ft 468 kts 141°
2026-05-05 23:06 52.88036 11.55447 30779 ft 463 kts 141°
2026-05-05 23:06 52.85689 11.59046 31356 ft 458 kts 141°
2026-05-05 23:07 52.83359 11.62612 31911 ft 454 kts 141°
2026-05-05 23:07 52.81048 11.66140 32396 ft 450 kts 141°
2026-05-05 23:07 52.78773 11.69606 32688 ft 452 kts 142°
2026-05-05 23:07 52.76417 11.73185 32788 ft 456 kts 142°
2026-05-05 23:08 52.71782 11.80220 32845 ft 454 kts 142°
2026-05-05 23:08 52.67167 11.87213 32852 ft 449 kts 142°
2026-05-05 23:09 52.62561 11.94164 32851 ft 448 kts 141°
2026-05-05 23:09 52.60259 11.97624 32455 ft 447 kts 138°
2026-05-05 23:09 52.57978 12.01058 32988 ft 446 kts 141°
2026-05-05 23:10 52.53383 12.07955 32841 ft 448 kts 142°
2026-05-05 23:10 52.48772 12.14850 32852 ft 449 kts 142°
2026-05-05 23:11 52.44142 12.21757 32847 ft 450 kts 142°
2026-05-05 23:11 52.39506 12.28653 32837 ft 450 kts 142°
2026-05-05 23:12 52.34863 12.35537 32831 ft 450 kts 141°
2026-05-05 23:12 52.30231 12.42386 32820 ft 448 kts 141°
2026-05-05 23:13 52.25611 12.49199 32834 ft 448 kts 142°
2026-05-05 23:13 52.20974 12.56014 32823 ft 449 kts 142°
2026-05-05 23:14 52.16319 12.62835 32824 ft 451 kts 142°
2026-05-05 23:14 52.05783 12.78200 32805 ft 453 kts 141°
2026-05-05 23:15 51.90144 13.00827 32805 ft 454 kts 141°
2026-05-05 23:15 51.84093 13.09515 32548 ft 453 kts 139°
2026-05-05 23:15 51.81738 13.12891 32761 ft 452 kts 139°
2026-05-05 23:16 51.77825 13.18491 33358 ft 454 kts 139°
2026-05-05 23:16 51.75478 13.21851 33111 ft 448 kts 141°
2026-05-05 23:16 51.73162 13.25156 32966 ft 443 kts 141°
2026-05-05 23:17 51.66754 13.34254 32792 ft 453 kts 141°
2026-05-05 23:17 51.57246 13.47707 32784 ft 456 kts 141°
2026-05-05 23:18 51.47673 13.61174 32746 ft 458 kts 141°
2026-05-05 23:18 51.38069 13.74606 32774 ft 459 kts 141°
2026-05-05 23:19 51.28435 13.88003 32774 ft 459 kts 141°
2026-05-05 23:19 51.18783 14.01346 32894 ft 459 kts 141°
2026-05-05 23:20 51.13968 14.07976 32775 ft 458 kts 141°
2026-05-05 23:20 51.09139 14.14604 32768 ft 457 kts 141°
2026-05-05 23:20 50.99517 14.27759 32770 ft 456 kts 141°
2026-05-05 23:21 50.90029 14.41078 32766 ft 457 kts 138°
2026-05-05 23:21 50.81118 14.55425 32802 ft 457 kts 137°
2026-05-05 23:22 50.72130 14.69680 32755 ft 459 kts 138°
2026-05-05 23:22 50.63068 14.83914 32780 ft 461 kts 138°
2026-05-05 23:23 50.54017 14.98052 32769 ft 463 kts 139°
2026-05-05 23:23 50.44843 15.12304 32749 ft 465 kts 139°
2026-05-05 23:24 50.35615 15.26557 32764 ft 466 kts 139°
2026-05-05 23:24 50.26336 15.40806 32736 ft 468 kts 139°
2026-05-05 23:25 50.21689 15.47911 32849 ft 468 kts 139°
2026-05-05 23:25 50.17033 15.55009 32859 ft 469 kts 139°
2026-05-05 23:25 50.07670 15.69221 32942 ft 470 kts 139°
2026-05-05 23:26 49.98286 15.83385 32942 ft 470 kts 139°
2026-05-05 23:26 49.88878 15.97503 32763 ft 471 kts 139°
2026-05-05 23:27 49.79450 16.11569 32779 ft 470 kts 139°
2026-05-05 23:27 49.69996 16.25595 32774 ft 471 kts 139°
2026-05-05 23:28 49.60511 16.39587 32761 ft 472 kts 139°
2026-05-05 23:28 49.50992 16.53548 32791 ft 473 kts 139°
2026-05-05 23:29 49.41911 16.66796 32890 ft 478 kts 139°
2026-05-05 23:29 49.38383 16.71926 33364 ft 477 kts 139°
2026-05-05 23:29 49.35977 16.75419 33739 ft 476 kts 139°
2026-05-05 23:30 49.33568 16.78908 34047 ft 476 kts 139°
2026-05-05 23:30 49.31163 16.82386 34315 ft 476 kts 139°
2026-05-05 23:30 49.28751 16.85870 34571 ft 476 kts 139°
2026-05-05 23:30 49.26279 16.89436 34712 ft 479 kts 139°
2026-05-05 23:31 49.17340 17.02286 34830 ft 490 kts 139°
2026-05-05 23:31 49.10247 17.12445 34770 ft 486 kts 139°
2026-05-05 23:31 49.00487 17.26381 34747 ft 475 kts 139°
2026-05-05 23:31 48.91132 17.40398 34779 ft 470 kts 138°
2026-05-05 23:32 48.72982 17.69410 34731 ft 487 kts 133°
2026-05-05 23:32 48.63934 17.84872 34947 ft 492 kts 133°
2026-05-05 23:32 48.54876 18.00235 34925 ft 488 kts 133°
2026-05-05 23:33 48.45752 18.15620 34804 ft 480 kts 133°
2026-05-05 23:33 48.37014 18.30271 34835 ft 476 kts 133°
2026-05-05 23:33 48.19009 18.60202 34926 ft 492 kts 133°
2026-05-05 23:34 48.00605 18.90453 34869 ft 485 kts 132°
2026-05-05 23:34 47.82587 19.19736 34953 ft 482 kts 132°
2026-05-05 23:35 47.64056 19.49518 34980 ft 495 kts 132°
2026-05-05 23:35 47.45611 19.78831 34876 ft 478 kts 133°
2026-05-05 23:36 47.27267 20.07667 35060 ft 490 kts 133°
2026-05-05 23:36 47.08404 20.36992 34908 ft 491 kts 133°
2026-05-05 23:37 46.89881 20.65480 34931 ft 479 kts 133°
2026-05-05 23:37 46.80575 20.79677 35116 ft 488 kts 133°
2026-05-05 23:37 46.71063 20.94111 35112 ft 497 kts 133°
2026-05-05 23:38 46.52013 21.22788 35012 ft 485 kts 133°
2026-05-05 23:38 46.33763 21.51237 35096 ft 486 kts 131°
2026-05-05 23:39 46.15032 21.80354 35100 ft 498 kts 131°
2026-05-05 23:39 45.96384 22.09032 35063 ft 482 kts 131°
2026-05-05 23:40 45.77831 22.37273 35171 ft 495 kts 131°
2026-05-05 23:40 45.59786 22.64451 35096 ft 493 kts 131°
2026-05-05 23:41 45.50425 22.78447 35105 ft 482 kts 131°
2026-05-05 23:41 45.41163 22.92228 35096 ft 482 kts 132°
2026-05-05 23:41 45.22242 23.20159 35136 ft 498 kts 132°
2026-05-05 23:42 45.04121 23.49139 35026 ft 483 kts 124°
2026-05-05 23:42 45.00885 23.55300 35137 ft 480 kts 125°
2026-05-05 23:42 44.98827 23.59176 35083 ft 488 kts 125°
2026-05-05 23:43 44.83364 23.87924 35105 ft 498 kts 125°
2026-05-05 23:43 44.80038 23.94070 34705 ft 495 kts 127°
2026-05-05 23:43 44.77956 23.97906 35169 ft 493 kts 126°
2026-05-05 23:44 44.66158 24.19567 35074 ft 476 kts 126°
2026-05-05 23:44 44.56335 24.37486 35094 ft 492 kts 126°
2026-05-05 23:45 44.39388 24.68121 35029 ft 494 kts 126°
2026-05-05 23:45 44.36129 24.73977 35154 ft 490 kts 127°
2026-05-05 23:45 44.34031 24.77733 35074 ft 491 kts 126°
2026-05-05 23:46 44.19731 25.03257 35057 ft 482 kts 127°
2026-05-05 23:46 44.03018 25.32810 35108 ft 493 kts 128°
2026-05-05 23:47 43.95338 25.48643 35083 ft 497 kts 114°
2026-05-05 23:47 43.89317 25.65826 35027 ft 493 kts 116°
2026-05-05 23:47 43.77245 25.99206 35021 ft 480 kts 116°
2026-05-05 23:48 43.65076 26.32496 35104 ft 497 kts 116°
2026-05-05 23:48 43.52614 26.66178 34993 ft 483 kts 116°
2026-05-05 23:49 43.40435 26.98708 35062 ft 480 kts 116°
2026-05-05 23:49 43.27917 27.31753 35063 ft 491 kts 116°
2026-05-05 23:50 43.15451 27.64280 35010 ft 472 kts 116°
2026-05-05 23:50 43.04173 27.93400 35107 ft 482 kts 115°
2026-05-05 23:51 42.97415 28.10702 35077 ft 489 kts 116°
2026-05-05 23:51 42.91804 28.24983 35048 ft 481 kts 115°
2026-05-05 23:52 42.85530 28.40874 35051 ft 474 kts 115°
2026-05-05 23:52 42.79188 28.56860 35049 ft 486 kts 115°
2026-05-05 23:53 42.72697 28.73117 35064 ft 491 kts 115°
2026-05-05 23:53 42.66196 28.89302 35031 ft 483 kts 115°
2026-05-05 23:54 42.59792 29.05166 35020 ft 476 kts 115°
2026-05-05 23:54 42.53373 29.20988 35047 ft 483 kts 115°
2026-05-05 23:55 42.46816 29.37053 35036 ft 489 kts 115°
2026-05-05 23:55 42.40254 29.53043 35007 ft 480 kts 115°
2026-05-05 23:56 42.34626 29.69101 35003 ft 466 kts 103°
2026-05-05 23:56 42.30490 29.85756 35035 ft 471 kts 104°
2026-05-05 23:57 42.26757 30.00359 34982 ft 475 kts 104°
2026-05-05 23:57 42.25570 30.04993 35118 ft 473 kts 105°
2026-05-05 23:57 42.24489 30.09191 35041 ft 473 kts 104°
2026-05-05 23:58 42.20468 30.24772 34969 ft 465 kts 104°
2026-05-05 23:58 42.19311 30.29250 35104 ft 463 kts 105°
2026-05-05 23:58 42.18244 30.33361 35042 ft 468 kts 104°
2026-05-05 23:59 42.14164 30.49047 35047 ft 474 kts 104°
2026-05-05 23:59 42.12980 30.53584 35178 ft 471 kts 105°
2026-05-05 23:59 42.11888 30.57736 35068 ft 470 kts 104°
2026-05-06 00:00 42.07963 30.72644 34969 ft 458 kts 103°
2026-05-06 00:00 42.06801 30.77070 35143 ft 456 kts 105°
2026-05-06 00:00 42.05729 30.81125 35060 ft 464 kts 103°
2026-05-06 00:01 42.01708 30.96275 34980 ft 475 kts 104°
2026-05-06 00:01 42.00903 30.99304 34401 ft 475 kts 109°
2026-05-06 00:01 41.99789 31.03462 35174 ft 471 kts 104°
2026-05-06 00:02 41.97160 31.13223 35005 ft 463 kts 104°
2026-05-06 00:02 41.92811 31.29346 34960 ft 460 kts 104°
2026-05-06 00:03 41.88370 31.45715 34963 ft 473 kts 104°
2026-05-06 00:03 41.85665 31.55609 35026 ft 472 kts 104°
2026-05-06 00:04 41.82649 31.66607 34949 ft 465 kts 104°
2026-05-06 00:04 41.78237 31.82851 34950 ft 466 kts 104°
2026-05-06 00:05 41.71311 32.07640 34957 ft 479 kts 105°
2026-05-06 00:06 41.66628 32.24256 34925 ft 473 kts 105°
2026-05-06 00:06 41.62072 32.40584 34946 ft 465 kts 105°
2026-05-06 00:07 41.57501 32.56741 34998 ft 467 kts 105°
2026-05-06 00:07 41.52829 32.73107 34967 ft 474 kts 106°
2026-05-06 00:08 41.48130 32.89488 35009 ft 477 kts 106°
2026-05-06 00:08 41.42744 33.05633 34978 ft 477 kts 115°
2026-05-06 00:09 41.36340 33.20911 35003 ft 470 kts 115°
2026-05-06 00:09 41.30122 33.36308 35012 ft 477 kts 114°
2026-05-06 00:10 41.23867 33.52054 34999 ft 486 kts 114°
2026-05-06 00:10 41.17529 33.68031 34990 ft 483 kts 115°
2026-05-06 00:11 41.11292 33.83642 34962 ft 475 kts 115°
2026-05-06 00:11 41.05102 33.99062 34955 ft 475 kts 116°
2026-05-06 00:12 40.98820 34.14633 34946 ft 485 kts 116°
2026-05-06 00:12 40.92442 34.30351 34911 ft 488 kts 116°
2026-05-06 00:13 40.86063 34.45989 34899 ft 479 kts 117°
2026-05-06 00:13 40.79734 34.61432 34911 ft 479 kts 117°
2026-05-06 00:14 40.73746 34.77302 34899 ft 487 kts 106°
2026-05-06 00:14 40.70040 34.94523 34896 ft 489 kts 104°
2026-05-06 00:15 40.66220 35.11671 34915 ft 488 kts 105°
2026-05-06 00:15 40.62353 35.28880 34924 ft 493 kts 105°
2026-05-06 00:16 40.58423 35.46249 34917 ft 497 kts 105°
2026-05-06 00:16 40.54442 35.63704 34918 ft 499 kts 106°
2026-05-06 00:17 40.50428 35.81171 34920 ft 499 kts 106°
2026-05-06 00:17 40.46387 35.98615 34930 ft 499 kts 107°
2026-05-06 00:18 40.42325 36.16019 34940 ft 498 kts 107°
2026-05-06 00:18 40.38255 36.33329 34951 ft 497 kts 107°
2026-05-06 00:19 40.34158 36.50616 34957 ft 496 kts 107°
2026-05-06 00:19 40.30049 36.67829 34945 ft 495 kts 108°
2026-05-06 00:20 40.25922 36.84988 34947 ft 494 kts 108°
2026-05-06 00:20 40.21775 37.02108 34947 ft 493 kts 108°
2026-05-06 00:21 40.17601 37.19212 34950 ft 493 kts 108°
2026-05-06 00:21 40.13404 37.36290 34956 ft 493 kts 108°
2026-05-06 00:22 40.09184 37.53343 34948 ft 494 kts 109°
2026-05-06 00:22 40.04574 37.70112 34946 ft 494 kts 112°
2026-05-06 00:23 39.99577 37.86818 34952 ft 494 kts 111°
2026-05-06 00:23 39.94651 38.03554 34896 ft 495 kts 112°
2026-05-06 00:24 39.89691 38.20305 34883 ft 495 kts 112°
2026-05-06 00:24 39.84707 38.37021 34878 ft 496 kts 112°
2026-05-06 00:25 39.79690 38.53743 34880 ft 496 kts 112°
2026-05-06 00:25 39.74649 38.70439 34874 ft 497 kts 112°
2026-05-06 00:26 39.69578 38.87136 34875 ft 496 kts 113°
2026-05-06 00:26 39.64487 39.03789 34871 ft 496 kts 113°
2026-05-06 00:27 39.59377 39.20409 34883 ft 496 kts 113°
2026-05-06 00:27 39.54239 39.37018 34889 ft 497 kts 114°
2026-05-06 00:28 39.49362 39.53744 34953 ft 497 kts 110°
2026-05-06 00:28 39.45046 39.70747 34934 ft 497 kts 110°
2026-05-06 00:29 39.40650 39.87725 34912 ft 498 kts 110°
2026-05-06 00:29 39.36247 40.04612 34924 ft 499 kts 110°
2026-05-06 00:30 39.31057 40.21121 34938 ft 494 kts 124°
2026-05-06 00:30 39.22788 40.35307 34931 ft 491 kts 130°
2026-05-06 00:31 39.14536 40.49197 34930 ft 492 kts 130°
2026-05-06 00:31 39.06208 40.63171 34927 ft 492 kts 130°
2026-05-06 00:32 38.97849 40.77126 34915 ft 493 kts 131°
2026-05-06 00:32 38.89446 40.91095 34934 ft 493 kts 131°
2026-05-06 00:33 38.81021 41.05040 34936 ft 494 kts 131°
2026-05-06 00:33 38.72598 41.18924 34926 ft 495 kts 132°
2026-05-06 00:34 38.64111 41.32853 34944 ft 496 kts 132°
2026-05-06 00:34 38.55702 41.46863 34966 ft 498 kts 130°